DMSP 5D-2 F13 DEB, 42300

Orbit data source: Space-Track

DMSP 5D-2 F13 DEB, 42300 is space debris in SSO originally from a launch on Fri, 24 Mar 1995 UTC launched from the Air Force Western Test Range (AFWTR). Debris objects in space refer to the collection of defunct objects orbiting the Earth. Examples of debris include non-operational satellites, rocket bodies, and fragments generated from explosions, collisions, or faulty payload assembly.

Loading next visibility...
Identifier
42300, 1995-015HS
Orbit
SSO
Country
Flag of USUS
Related business
Manufacturer
Unknown
Mission
Spacecraft
Bus & Motor
Unknown
Mass
Unknown
Launch date (UTC)
1995-03-24 (31 years ago)
Launch vehicle
Unknown
Launch site
Air Force Western Test Range (AFWTR)
Object type
Payload
Rocket body
Debris
Shape & HBR
Unknown shape, 0.1 m
Radar Cross Section
Small (<0.1 m²)

Expand to show TLE details & history
Last TLE update: 1 day ago

TLE from 1 day ago
0 DMSP 5D-2 F13 DEB
1 42300U 95015HS  25291.82291829  .00010561  00000-0  31618-2 0  9993
2 42300  98.6099 329.0692 0023882 291.1627  68.7011 14.42850575466284
Epoch: 2025-10-18T19:45Z
TLE epoch observation values (Epoch: 2025-10-18T19:45:00.140Z)
Latitude
0.00004°
Longitude
5.2702°
Altitude
745.896 km
Speed
7.485 km/s
True Right ascension
21h 56m 16s
True Declination
0° 00' 00"
Sunlit
Object was in full shadow at epoch
Visualization orbit readout
Latitude
Unknown
Longitude
Unknown
Altitude
Unknown
Speed
Unknown
Apparent Right ascension
Unknown
Apparent Declination
Unknown
Sunlit
N/A
Visualization observer readout
Local Sidereal Time
16:42:58
Azimuth
Unknown
Elevation
Unknown
Doppler factor
Unknown
Orbital elements
Apogee altitude
763.233 km
Perigee altitude
729.205 km
Semi-major axis
7,124.356 km
Eccentricity
0.00239
Inclination
98.6099°
RAAN
329.0692°
Arg. of periapsis
291.1627°
True anomaly
68.95635°
Mean anomaly
68.7011°
Eccentric anomaly
68.8287°
Mean motion
3.60931 °/min
Orbital period
99.74 mins
BSTAR
0.0031618

Documentation

Showing up to 5 results
|